GW3985 Weather Reports


time (UTC)temp
F
wind
direction
speed
knots
gust
knots
rain 1hr
in
rain 24hr
in
rain mn
in
humidity
%
barometer
mb
20260905075015 70 145 0.9 3.5 0.00 0.00 0.00 58 1023.1
20260905074036 70 144 1.7 6.1 0.00 0.00 0.00 58 1023.1
20260905073016 69 142 0.0 2.6 0.00 0.00 0.00 58 1023.2
20260905072016 70 141 0.0 0.9 0.00 0.00 0.00 58 1023.3
20260905071017 70 137 0.9 3.5 0.00 0.00 0.00 58 1023.2
20260905070015 70 143 0.9 3.5 0.00 0.00 0.00 57 1023.3
20260905065015 70 145 0.0 1.7 0.00 0.00 0.00 56 1023.3
20260905064016 70 139 0.0 0.9 0.00 0.00 0.00 56 1023.4
20260905063016 70 144 0.9 3.5 0.00 0.00 0.00 56 1023.4
20260905062016 70 141 0.0 1.7 0.00 0.00 0.00 57 1023.4
20260905061019 70 161 0.0 1.7 0.00 0.00 0.00 56 1023.4
20260905060017 70 0.0 0.0 0.00 0.00 0.00 56 1023.3
20260905055015 71 0.0 0.0 0.00 0.00 0.00 55 1023.3
20260905054035 71 142 0.0 1.7 0.00 0.00 0.00 55 1023.2
20260905053015 71 139 0.9 3.5 0.00 0.00 0.00 54 1023.0
20260905052016 72 136 0.0 0.9 0.00 0.00 0.00 53 1023.1
20260905051016 73 152 0.0 1.7 0.00 0.00 0.00 51 1023.0
20260905050016 74 144 0.9 3.5 0.00 0.00 0.00 50 1023.0
20260905045037 75 143 0.0 1.7 0.00 0.00 0.00 48 1022.8
20260905044015 76 141 1.7 6.1 0.00 0.00 0.00 47 1022.8
20260905043015 76 136 2.6 7.8 0.00 0.00 0.00 46 1022.6
20260905042015 77 133 1.7 7.8 0.00 0.00 0.00 45 1022.6
20260905041056 77 133 2.6 11.3 0.00 0.00 0.00 43 1022.7
20260905040016 77 140 3.5 7.8 0.00 0.00 0.00 42 1022.6
20260905035017 77 132 2.6 7.0 0.00 0.00 0.00 42 1022.5
20260905034017 77 127 1.7 5.2 0.00 0.00 0.00 43 1022.5
20260905033035 77 125 1.7 3.5 0.00 0.00 0.00 43 1022.4
20260905032015 78 107 0.9 3.5 0.00 0.00 0.00 41 1022.4
20260905031016 78 123 1.7 3.5 0.00 0.00 0.00 40 1022.3
20260905030036 78 128 1.7 7.0 0.00 0.00 0.00 40 1022.2
20260905025016 77 114 0.9 2.6 0.00 0.00 0.00 41 1022.1
20260905024037 77 119 0.9 5.2 0.00 0.00 0.00 40 1022.0
20260905023015 78 110 1.7 7.0 0.00 0.00 0.00 38 1022.0
20260905022015 78 98 0.9 3.5 0.00 0.00 0.00 38 1021.8
20260905021015 79 115 0.9 3.5 0.00 0.00 0.00 38 1021.7
20260905020016 79 104 0.9 2.6 0.00 0.00 0.00 37 1021.6
20260905015016 79 115 1.7 3.5 0.00 0.00 0.00 36 1021.4
20260905014017 80 138 3.5 10.4 0.00 0.00 0.00 35 1021.6
20260905013017 80 134 2.6 7.0 0.00 0.00 0.00 36 1021.4
20260905012015 82 137 2.6 12.2 0.00 0.00 0.00 36 1021.5
20260905011015 83 120 1.7 5.2 0.00 0.00 0.00 32 1021.3
20260905010015 84 94 0.9 2.6 0.00 0.00 0.00 32 1021.1
20260905005016 84 89 0.9 2.6 0.00 0.00 0.00 31 1021.1
20260905004016 85 92 0.9 2.6 0.00 0.00 0.00 31 1021.1
20260905003017 86 91 0.9 2.6 0.00 0.00 0.00 30 1021.0
20260905002017 86 85 1.7 3.5 0.00 0.00 0.00 29 1021.0
20260905001015 87 93 1.7 3.5 0.00 0.00 0.00 29 1021.0
20260905000015 88 101 1.7 3.5 0.00 0.00 0.00 28 1020.9
20260904235016 89 111 0.9 2.6 0.00 0.00 0.00 27 1020.7
20260904234016 89 94 0.9 1.7 0.00 0.00 0.00 28 1020.6
20260904233016 89 90 0.9 2.6 0.00 0.00 0.00 27 1020.7
20260904232017 90 92 0.9 1.7 0.00 0.00 0.00 28 1020.7
20260904231037 90 85 0.0 0.9 0.00 0.00 0.00 27 1020.7
20260904230015 90 94 0.9 1.7 0.00 0.00 0.00 27 1020.8
20260904225015 90 97 0.9 2.6 0.00 0.00 0.00 28 1020.8
20260904224036 89 279 0.9 1.7 0.00 0.00 0.00 28 1020.8
20260904223016 89 89 0.9 2.6 0.00 0.00 0.00 28 1020.8
20260904222036 91 86 0.9 3.5 0.00 0.00 0.00 27 1020.9
20260904221017 90 96 0.9 2.6 0.00 0.00 0.00 27 1020.9
20260904220017 90 87 0.9 2.6 0.00 0.00 0.00 26 1021.1
20260904215015 91 79 1.7 3.5 0.00 0.00 0.00 26 1021.1
20260904214035 91 101 0.9 1.7 0.00 0.00 0.00 26 1021.3
20260904213056 90 94 0.9 1.7 0.00 0.00 0.00 26 1021.4
20260904212036 89 86 0.9 3.5 0.00 0.00 0.00 27 1021.4
20260904211016 89 92 0.0 1.7 0.00 0.00 0.00 26 1021.5
20260904210017 90 90 1.7 5.2 0.00 0.00 0.00 25 1021.7
20260904205055 90 85 0.9 1.7 0.00 0.00 0.00 24 1021.8
20260904204015 91 26 0.0 0.9 0.00 0.00 0.00 23 1021.9
20260904203035 92 129 0.0 1.7 0.00 0.00 0.00 23 1022.0
20260904202056 92 338 0.0 0.9 0.00 0.00 0.00 23 1022.1
20260904201016 91 20 0.0 0.9 0.00 0.00 0.00 23 1022.1
20260904200037 91 290 0.0 2.6 0.00 0.00 0.00 23 1022.2
20260904195017 91 0.0 0.0 0.00 0.00 0.00 24 1022.4
20260904194015 91 114 0.9 2.6 0.00 0.00 0.00 23 1022.4
20260904193055 91 332 0.9 4.3 0.00 0.00 0.00 23 1022.4
20260904192036 92 77 0.9 2.6 0.00 0.00 0.00 22 1022.6
20260904191016 91 46 0.0 1.7 0.00 0.00 0.00 24 1022.7
20260904190016 90 359 0.0 2.6 0.00 0.00 0.00 24 1022.8
20260904185016 89 271 0.0 1.7 0.00 0.00 0.00 24 1022.9
20260904184017 88 205 0.0 1.7 0.00 0.00 0.00 25 1023.0
20260904183015 87 239 0.0 0.9 0.00 0.00 0.00 25 1023.1
20260904182035 86 20 0.0 1.7 0.00 0.00 0.00 25 1023.2
20260904181035 86 201 0.0 1.7 0.00 0.00 0.00 25 1023.4
20260904180016 85 0.0 0.0 0.00 0.00 0.00 26 1023.5
20260904175016 84 143 0.0 0.9 0.00 0.00 0.00 25 1023.6
20260904174016 84 118 0.9 3.5 0.00 0.00 0.00 25 1023.6
20260904173017 83 290 0.0 0.9 0.00 0.00 0.00 27 1023.6
20260904172035 82 125 0.0 0.9 0.00 0.00 0.00 27 1023.6
20260904171035 81 278 0.0 1.7 0.00 0.00 0.00 28 1023.6
20260904170035 81 29 0.0 1.7 0.00 0.00 0.00 28 1023.6
20260904165016 81 193 0.0 0.9 0.00 0.00 0.00 27 1023.7
20260904164017 80 194 0.0 1.7 0.00 0.00 0.00 27 1023.7
20260904163017 80 218 0.0 1.7 0.00 0.00 0.00 29 1023.6
20260904162017 79 263 0.0 0.9 0.00 0.00 0.00 30 1023.6
20260904161035 78 316 0.0 0.9 0.00 0.00 0.00 33 1023.7
20260904160015 78 142 0.0 1.7 0.00 0.00 0.00 33 1023.7
20260904155016 77 158 0.0 1.7 0.00 0.00 0.00 33 1023.6
20260904154016 76 191 0.0 1.7 0.00 0.00 0.00 33 1023.6
20260904153016 75 143 0.9 1.7 0.00 0.00 0.00 34 1023.7
20260904152017 74 136 0.0 0.9 0.00 0.00 0.00 36 1023.6
20260904151014 73 142 0.9 1.7 0.00 0.00 0.00 37 1023.6
20260904150015 72 147 0.0 0.9 0.00 0.00 0.00 38 1023.6
20260904145015 71 0.0 0.0 0.00 0.00 0.00 40 1023.5
20260904144036 70 152 0.0 0.9 0.00 0.00 0.00 41 1023.5
20260904143056 69 150 0.0 0.9 0.00 0.00 0.00 46 1023.6
20260904142017 68 133 0.0 0.9 0.00 0.00 0.00 49 1023.4
20260904141017 66 133 0.0 0.9 0.00 0.00 0.00 50 1023.3
20260904140015 64 133 0.0 0.9 0.00 0.00 0.00 51 1023.3
20260904135015 63 0.0 0.0 0.00 0.00 0.00 56 1023.2
20260904134016 63 0.0 0.0 0.00 0.00 0.00 55 1023.2
20260904133017 63 133 0.0 0.9 0.00 0.00 0.00 52 1022.9
20260904132036 62 133 0.0 0.9 0.00 0.00 0.00 52 1022.7
20260904131037 61 133 0.0 1.7 0.00 0.00 0.00 53 1022.6
20260904130037 61 133 0.0 1.7 0.00 0.00 0.00 53 1022.5
20260904125015 60 0.0 0.0 0.00 0.00 0.00 53 1022.4
20260904124015 61 0.0 0.0 0.00 0.00 0.00 53 1022.3
20260904123016 60 131 0.9 2.6 0.00 0.00 0.00 53 1022.3
20260904122116 60 135 0.0 0.9 0.00 0.00 0.00 55 1022.3
20260904121016 61 0.0 0.0 0.00 0.00 0.00 54 1022.1
20260904120017 61 135 0.0 0.9 0.00 0.00 0.00 52 1022.0
20260904115017 61 0.0 0.0 0.00 0.00 0.00 53 1021.8
20260904114035 61 135 0.0 0.9 0.00 0.00 0.00 53 1021.9
20260904113015 61 135 0.0 0.9 0.00 0.00 0.00 55 1021.8
20260904112036 61 135 0.0 0.9 0.00 0.00 0.00 56 1021.9
20260904111016 60 142 0.0 0.9 0.00 0.00 0.00 60 1021.9
20260904110036 59 0.0 0.0 0.00 0.00 0.00 63 1021.9
20260904105017 60 0.0 0.0 0.00 0.00 0.00 62 1021.8
20260904104017 61 0.0 0.0 0.00 0.00 0.00 60 1021.5
20260904103017 62 0.0 0.0 0.00 0.00 0.00 59 1021.3
20260904102015 62 144 0.0 1.7 0.00 0.00 0.00 58 1021.1
20260904101016 63 146 0.0 0.9 0.00 0.00 0.00 57 1021.0
20260904100016 64 146 0.0 0.9 0.00 0.00 0.00 56 1021.0
20260904095017 65 0.0 0.0 0.00 0.00 0.00 55 1020.9
20260904094017 65 137 0.9 1.7 0.00 0.00 0.00 55 1020.7
20260904093015 65 143 0.9 1.7 0.00 0.00 0.00 55 1020.7
20260904092015 65 148 0.0 0.9 0.00 0.00 0.00 55 1020.6
20260904091015 65 140 0.9 2.6 0.00 0.00 0.00 55 1020.5
20260904090016 65 140 0.0 1.7 0.00 0.00 0.00 55 1020.5
20260904085016 66 139 0.9 1.7 0.00 0.00 0.00 54 1020.6
20260904084017 66 141 0.0 0.9 0.00 0.00 0.00 53 1020.5
20260904083017 67 140 0.0 2.6 0.00 0.00 0.00 53 1020.5
20260904082015 68 0.0 0.0 0.00 0.00 0.00 52 1020.6
20260904081015 69 146 0.9 4.3 0.00 0.00 0.00 50 1020.3
20260904080015 69 144 0.9 3.5 0.00 0.00 0.00 50 1020.3